owner,sensor,date,latitude,longitude,vertical_datum,sea_water_practical_salinity,qcFlag 
ENP,ioos.station.NOAA.NDBC:DKKF1:1,2015-11-01T23:00:00Z,25.1800,-80.4900,1.5,36.9,1111122 
ENP,ioos.station.NOAA.NDBC:DKKF1:1,2015-11-02T00:00:00Z,25.1800,-80.4900,1.5,36.89,1111122 
ENP,ioos.station.NOAA.NDBC:DKKF1:1,2015-11-02T02:00:00Z,25.1800,-80.4900,1.5,36.9,1111122 
ENP,ioos.station.NOAA.NDBC:DKKF1:1,2015-11-02T04:00:00Z,25.1800,-80.4900,1.5,36.97,1111122 
ENP,ioos.station.NOAA.NDBC:DKKF1:1,2015-11-02T05:00:00Z,25.1800,-80.4900,1.5,37.0,1111122 
ENP,ioos.station.NOAA.NDBC:DKKF1:1,2015-11-02T06:00:00Z,25.1800,-80.4900,1.5,37.01,1111122 
ENP,ioos.station.NOAA.NDBC:DKKF1:1,2015-11-02T07:00:00Z,25.1800,-80.4900,1.5,36.99,1111122 
ENP,ioos.station.NOAA.NDBC:DKKF1:1,2015-11-02T08:00:00Z,25.1800,-80.4900,1.5,36.99,1111122 
ENP,ioos.station.NOAA.NDBC:DKKF1:1,2015-11-02T09:00:00Z,25.1800,-80.4900,1.5,37.0,1111122 
ENP,ioos.station.NOAA.NDBC:DKKF1:1,2015-11-02T10:00:00Z,25.1800,-80.4900,1.5,37.0,11111222 
ENP,ioos.station.NOAA.NDBC:DKKF1:1,2015-11-02T11:00:00Z,25.1800,-80.4900,1.5,37.01,1111122 
ENP,ioos.station.NOAA.NDBC:DKKF1:1,2015-11-02T12:00:00Z,25.1800,-80.4900,1.5,37.01,1111122 
ENP,ioos.station.NOAA.NDBC:DKKF1:1,2015-11-02T14:00:00Z,25.1800,-80.4900,1.5,37.05,1111122 
ENP,ioos.station.NOAA.NDBC:DKKF1:1,2015-11-02T15:00:00Z,25.1800,-80.4900,1.5,37.1,11111222 
ENP,ioos.station.NOAA.NDBC:DKKF1:1,2015-11-02T16:00:00Z,25.1800,-80.4900,1.5,37.08,1111122 
ENP,ioos.station.NOAA.NDBC:DKKF1:1,2015-11-02T17:00:00Z,25.1800,-80.4900,1.5,37.09,1111122 
ENP,ioos.station.NOAA.NDBC:DKKF1:1,2015-11-02T18:00:00Z,25.1800,-80.4900,1.5,37.1,11111222 
ENP,ioos.station.NOAA.NDBC:DKKF1:1,2015-11-02T19:00:00Z,25.1800,-80.4900,1.5,37.13,1111122 
ENP,ioos.station.NOAA.NDBC:DKKF1:1,2015-11-02T21:00:00Z,25.1800,-80.4900,1.5,37.14,1111122 
ENP,ioos.station.NOAA.NDBC:DKKF1:1,2015-11-02T22:00:00Z,25.1800,-80.4900,1.5,37.2,11111222 
ENP,ioos.station.NOAA.NDBC:DKKF1:1,2015-11-02T23:00:00Z,25.1800,-80.4900,1.5,37.15,1111122 
ENP,ioos.station.NOAA.NDBC:DKKF1:1,2015-11-03T00:00:00Z,25.1800,-80.4900,1.5,37.15,1111122 
ENP,ioos.station.NOAA.NDBC:DKKF1:1,2015-11-03T02:00:00Z,25.1800,-80.4900,1.5,37.15,1111122 
ENP,ioos.station.NOAA.NDBC:DKKF1:1,2015-11-03T04:00:00Z,25.1800,-80.4900,1.5,37.17,1111122 
ENP,ioos.station.NOAA.NDBC:DKKF1:1,2015-11-03T05:00:00Z,25.1800,-80.4900,1.5,37.2,11111222 
ENP,ioos.station.NOAA.NDBC:DKKF1:1,2015-11-03T06:00:00Z,25.1800,-80.4900,1.5,37.17,1111122 
ENP,ioos.station.NOAA.NDBC:DKKF1:1,2015-11-03T07:00:00Z,25.1800,-80.4900,1.5,37.17,1111122 
ENP,ioos.station.NOAA.NDBC:DKKF1:1,2015-11-03T09:00:00Z,25.1800,-80.4900,1.5,37.17,1111122 
ENP,ioos.station.NOAA.NDBC:DKKF1:1,2015-11-03T10:00:00Z,25.1800,-80.4900,1.5,37.2,11111222 
ENP,ioos.station.NOAA.NDBC:DKKF1:1,2015-11-03T11:00:00Z,25.1800,-80.4900,1.5,37.18,1111122 
ENP,ioos.station.NOAA.NDBC:DKKF1:1,2015-11-03T12:00:00Z,25.1800,-80.4900,1.5,37.18,1111122 
ENP,ioos.station.NOAA.NDBC:DKKF1:1,2015-11-03T13:00:00Z,25.1800,-80.4900,1.5,37.2,11111222 
ENP,ioos.station.NOAA.NDBC:DKKF1:1,2015-11-03T14:00:00Z,25.1800,-80.4900,1.5,37.15,1111122 
ENP,ioos.station.NOAA.NDBC:DKKF1:1,2015-11-03T15:00:00Z,25.1800,-80.4900,1.5,37.1,11111222 
ENP,ioos.station.NOAA.NDBC:DKKF1:1,2015-11-03T16:00:00Z,25.1800,-80.4900,1.5,37.1,1111122 
ENP,ioos.station.NOAA.NDBC:DKKF1:1,2015-11-03T17:00:00Z,25.1800,-80.4900,1.5,37.1,11111222 
ENP,ioos.station.NOAA.NDBC:DKKF1:1,2015-11-03T18:00:00Z,25.1800,-80.4900,1.5,37.1,1111122 
ENP,ioos.station.NOAA.NDBC:DKKF1:1,2015-11-03T19:00:00Z,25.1800,-80.4900,1.5,37.1,1111122 
ENP,ioos.station.NOAA.NDBC:DKKF1:1,2015-11-03T21:00:00Z,25.1800,-80.4900,1.5,37.12,1111122 
ENP,ioos.station.NOAA.NDBC:DKKF1:1,2015-11-03T22:00:00Z,25.1800,-80.4900,1.5,37.14,1111122 
ENP,ioos.station.NOAA.NDBC:DKKF1:1,2015-11-04T00:00:00Z,25.1800,-80.4900,1.5,37.18,1111122 
ENP,ioos.station.NOAA.NDBC:DKKF1:1,2015-11-04T01:00:00Z,25.1800,-80.4900,1.5,37.21,1111122 
ENP,ioos.station.NOAA.NDBC:DKKF1:1,2015-11-04T02:00:00Z,25.1800,-80.4900,1.5,37.23,1111122 
ENP,ioos.station.NOAA.NDBC:DKKF1:1,2015-11-04T04:00:00Z,25.1800,-80.4900,1.5,37.24,1111122 
ENP,ioos.station.NOAA.NDBC:DKKF1:1,2015-11-04T05:00:00Z,25.1800,-80.4900,1.5,37.2,11111222 
ENP,ioos.station.NOAA.NDBC:DKKF1:1,2015-11-04T06:00:00Z,25.1800,-80.4900,1.5,37.24,1111122 
ENP,ioos.station.NOAA.NDBC:DKKF1:1,2015-11-04T07:00:00Z,25.1800,-80.4900,1.5,37.25,1111122 
ENP,ioos.station.NOAA.NDBC:DKKF1:1,2015-11-04T09:00:00Z,25.1800,-80.4900,1.5,37.25,1111122 
ENP,ioos.station.NOAA.NDBC:DKKF1:1,2015-11-04T10:00:00Z,25.1800,-80.4900,1.5,37.25,1111122 
ENP,ioos.station.NOAA.NDBC:DKKF1:1,2015-11-04T11:00:00Z,25.1800,-80.4900,1.5,37.25,1111122 
ENP,ioos.station.NOAA.NDBC:DKKF1:1,2015-11-04T12:00:00Z,25.1800,-80.4900,1.5,37.26,1111122 
ENP,ioos.station.NOAA.NDBC:DKKF1:1,2015-11-04T13:00:00Z,25.1800,-80.4900,1.5,37.3,11111222 
ENP,ioos.station.NOAA.NDBC:DKKF1:1,2015-11-04T14:00:00Z,25.1800,-80.4900,1.5,37.3,11111222 
ENP,ioos.station.NOAA.NDBC:DKKF1:1,2015-11-04T16:00:00Z,25.1800,-80.4900,1.5,37.27,1111122 
ENP,ioos.station.NOAA.NDBC:DKKF1:1,2015-11-04T18:00:00Z,25.1800,-80.4900,1.5,37.21,1111122 
ENP,ioos.station.NOAA.NDBC:DKKF1:1,2015-11-04T19:00:00Z,25.1800,-80.4900,1.5,37.21,1111122 
ENP,ioos.station.NOAA.NDBC:DKKF1:1,2015-11-04T21:00:00Z,25.1800,-80.4900,1.5,37.24,1111122 
ENP,ioos.station.NOAA.NDBC:DKKF1:1,2015-11-04T22:00:00Z,25.1800,-80.4900,1.5,37.25,1111122 
ENP,ioos.station.NOAA.NDBC:DKKF1:1,2015-11-04T23:00:00Z,25.1800,-80.4900,1.5,37.3,11111222 
ENP,ioos.station.NOAA.NDBC:DKKF1:1,2015-11-05T00:00:00Z,25.1800,-80.4900,1.5,37.31,1111122 
ENP,ioos.station.NOAA.NDBC:DKKF1:1,2015-11-05T01:00:00Z,25.1800,-80.4900,1.5,37.33,1111122 
ENP,ioos.station.NOAA.NDBC:DKKF1:1,2015-11-05T02:00:00Z,25.1800,-80.4900,1.5,37.35,1111122 
ENP,ioos.station.NOAA.NDBC:DKKF1:1,2015-11-05T04:00:00Z,25.1800,-80.4900,1.5,37.3,1111122 
ENP,ioos.station.NOAA.NDBC:DKKF1:1,2015-11-05T05:00:00Z,25.1800,-80.4900,1.5,37.26,1111122 
ENP,ioos.station.NOAA.NDBC:DKKF1:1,2015-11-05T07:00:00Z,25.1800,-80.4900,1.5,37.24,1111122 
ENP,ioos.station.NOAA.NDBC:DKKF1:1,2015-11-05T09:00:00Z,25.1800,-80.4900,1.5,37.25,1111122 
ENP,ioos.station.NOAA.NDBC:DKKF1:1,2015-11-05T10:00:00Z,25.1800,-80.4900,1.5,37.3,11111222 
ENP,ioos.station.NOAA.NDBC:DKKF1:1,2015-11-05T11:00:00Z,25.1800,-80.4900,1.5,37.26,1111122 
ENP,ioos.station.NOAA.NDBC:DKKF1:1,2015-11-05T13:00:00Z,25.1800,-80.4900,1.5,37.27,1111122 
ENP,ioos.station.NOAA.NDBC:DKKF1:1,2015-11-05T14:00:00Z,25.1800,-80.4900,1.5,37.27,1111122 
ENP,ioos.station.NOAA.NDBC:DKKF1:1,2015-11-05T16:00:00Z,25.1800,-80.4900,1.5,37.36,1111122 
ENP,ioos.station.NOAA.NDBC:DKKF1:1,2015-11-05T17:00:00Z,25.1800,-80.4900,1.5,37.38,1111122 
ENP,ioos.station.NOAA.NDBC:DKKF1:1,2015-11-05T18:00:00Z,25.1800,-80.4900,1.5,37.4,1111122 
ENP,ioos.station.NOAA.NDBC:DKKF1:1,2015-11-05T19:00:00Z,25.1800,-80.4900,1.5,37.39,1111122 
ENP,ioos.station.NOAA.NDBC:DKKF1:1,2015-11-05T20:00:00Z,25.1800,-80.4900,1.5,37.4,11111222 
ENP,ioos.station.NOAA.NDBC:DKKF1:1,2015-11-05T21:00:00Z,25.1800,-80.4900,1.5,37.38,1111122 
ENP,ioos.station.NOAA.NDBC:DKKF1:1,2015-11-05T23:00:00Z,25.1800,-80.4900,1.5,37.42,1111122 
ENP,ioos.station.NOAA.NDBC:DKKF1:1,2015-11-06T00:00:00Z,25.1800,-80.4900,1.5,37.44,1111122 
ENP,ioos.station.NOAA.NDBC:DKKF1:1,2015-11-06T01:00:00Z,25.1800,-80.4900,1.5,37.47,1111122 
ENP,ioos.station.NOAA.NDBC:DKKF1:1,2015-11-06T02:00:00Z,25.1800,-80.4900,1.5,37.45,1111122 
ENP,ioos.station.NOAA.NDBC:DKKF1:1,2015-11-06T04:00:00Z,25.1800,-80.4900,1.5,37.45,1111122 
ENP,ioos.station.NOAA.NDBC:DKKF1:1,2015-11-06T05:00:00Z,25.1800,-80.4900,1.5,37.45,1111122 
ENP,ioos.station.NOAA.NDBC:DKKF1:1,2015-11-06T06:00:00Z,25.1800,-80.4900,1.5,37.47,1111122 
ENP,ioos.station.NOAA.NDBC:DKKF1:1,2015-11-06T07:00:00Z,25.1800,-80.4900,1.5,37.47,1111122 
ENP,ioos.station.NOAA.NDBC:DKKF1:1,2015-11-06T08:00:00Z,25.1800,-80.4900,1.5,37.5,11111222 
ENP,ioos.station.NOAA.NDBC:DKKF1:1,2015-11-06T09:00:00Z,25.1800,-80.4900,1.5,37.48,1111122 
ENP,ioos.station.NOAA.NDBC:DKKF1:1,2015-11-06T10:00:00Z,25.1800,-80.4900,1.5,37.47,1111122 
ENP,ioos.station.NOAA.NDBC:DKKF1:1,2015-11-06T11:00:00Z,25.1800,-80.4900,1.5,37.47,1111122 
ENP,ioos.station.NOAA.NDBC:DKKF1:1,2015-11-06T12:00:00Z,25.1800,-80.4900,1.5,37.47,1111122 
ENP,ioos.station.NOAA.NDBC:DKKF1:1,2015-11-06T14:00:00Z,25.1800,-80.4900,1.5,37.5,1111122 
ENP,ioos.station.NOAA.NDBC:DKKF1:1,2015-11-06T15:00:00Z,25.1800,-80.4900,1.5,37.5,11111222 
ENP,ioos.station.NOAA.NDBC:DKKF1:1,2015-11-06T16:00:00Z,25.1800,-80.4900,1.5,37.51,1111122 
ENP,ioos.station.NOAA.NDBC:DKKF1:1,2015-11-06T17:00:00Z,25.1800,-80.4900,1.5,37.53,1111122 
ENP,ioos.station.NOAA.NDBC:DKKF1:1,2015-11-06T18:00:00Z,25.1800,-80.4900,1.5,37.54,1111122 
ENP,ioos.station.NOAA.NDBC:DKKF1:1,2015-11-06T19:00:00Z,25.1800,-80.4900,1.5,37.54,1111122 
ENP,ioos.station.NOAA.NDBC:DKKF1:1,2015-11-06T20:00:00Z,25.1800,-80.4900,1.5,37.6,11111222 
ENP,ioos.station.NOAA.NDBC:DKKF1:1,2015-11-06T21:00:00Z,25.1800,-80.4900,1.5,37.57,1111122 
ENP,ioos.station.NOAA.NDBC:DKKF1:1,2015-11-06T22:00:00Z,25.1800,-80.4900,1.5,37.64,1111122 
ENP,ioos.station.NOAA.NDBC:DKKF1:1,2015-11-06T23:00:00Z,25.1800,-80.4900,1.5,37.72,1111122 
ENP,ioos.station.NOAA.NDBC:DKKF1:1,2015-11-07T00:00:00Z,25.1800,-80.4900,1.5,37.78,1111122 
ENP,ioos.station.NOAA.NDBC:DKKF1:1,2015-11-07T01:00:00Z,25.1800,-80.4900,1.5,37.83,1111122 
ENP,ioos.station.NOAA.NDBC:DKKF1:1,2015-11-07T04:00:00Z,25.1800,-80.4900,1.5,38.07,1111122 
ENP,ioos.station.NOAA.NDBC:DKKF1:1,2015-11-07T05:00:00Z,25.1800,-80.4900,1.5,38.02,1111122 
ENP,ioos.station.NOAA.NDBC:DKKF1:1,2015-11-07T06:00:00Z,25.1800,-80.4900,1.5,38.1,11111222 
ENP,ioos.station.NOAA.NDBC:DKKF1:1,2015-11-07T07:00:00Z,25.1800,-80.4900,1.5,38.07,1111122 
ENP,ioos.station.NOAA.NDBC:DKKF1:1,2015-11-07T08:00:00Z,25.1800,-80.4900,1.5,38.03,1111122 
ENP,ioos.station.NOAA.NDBC:DKKF1:1,2015-11-07T09:00:00Z,25.1800,-80.4900,1.5,38.0,11111222 
ENP,ioos.station.NOAA.NDBC:DKKF1:1,2015-11-07T10:00:00Z,25.1800,-80.4900,1.5,37.96,1111122 
ENP,ioos.station.NOAA.NDBC:DKKF1:1,2015-11-07T11:00:00Z,25.1800,-80.4900,1.5,38.0,11111222 
ENP,ioos.station.NOAA.NDBC:DKKF1:1,2015-11-07T12:00:00Z,25.1800,-80.4900,1.5,37.94,1111122 
ENP,ioos.station.NOAA.NDBC:DKKF1:1,2015-11-07T13:00:00Z,25.1800,-80.4900,1.5,37.97,1111122 
ENP,ioos.station.NOAA.NDBC:DKKF1:1,2015-11-07T14:00:00Z,25.1800,-80.4900,1.5,38.0,11111222 
ENP,ioos.station.NOAA.NDBC:DKKF1:1,2015-11-07T15:00:00Z,25.1800,-80.4900,1.5,38.03,1111122 
ENP,ioos.station.NOAA.NDBC:DKKF1:1,2015-11-07T16:00:00Z,25.1800,-80.4900,1.5,38.06,1111122 
ENP,ioos.station.NOAA.NDBC:DKKF1:1,2015-11-07T17:00:00Z,25.1800,-80.4900,1.5,38.1,11111222 
ENP,ioos.station.NOAA.NDBC:DKKF1:1,2015-11-07T18:00:00Z,25.1800,-80.4900,1.5,38.12,1111122 
ENP,ioos.station.NOAA.NDBC:DKKF1:1,2015-11-07T19:00:00Z,25.1800,-80.4900,1.5,38.18,1111122 
ENP,ioos.station.NOAA.NDBC:DKKF1:1,2015-11-07T20:00:00Z,25.1800,-80.4900,1.5,38.2,11111222 
ENP,ioos.station.NOAA.NDBC:DKKF1:1,2015-11-07T21:00:00Z,25.1800,-80.4900,1.5,38.19,1111122 
ENP,ioos.station.NOAA.NDBC:DKKF1:1,2015-11-07T22:00:00Z,25.1800,-80.4900,1.5,38.2,11111222 
ENP,ioos.station.NOAA.NDBC:DKKF1:1,2015-11-07T23:00:00Z,25.1800,-80.4900,1.5,38.21,1111122 
ENP,ioos.station.NOAA.NDBC:DKKF1:1,2015-11-08T00:00:00Z,25.1800,-80.4900,1.5,38.2,11111222 
ENP,ioos.station.NOAA.NDBC:DKKF1:1,2015-11-08T01:00:00Z,25.1800,-80.4900,1.5,38.22,1111122 
ENP,ioos.station.NOAA.NDBC:DKKF1:1,2015-11-08T04:00:00Z,25.1800,-80.4900,1.5,38.25,1111122 
ENP,ioos.station.NOAA.NDBC:DKKF1:1,2015-11-08T05:00:00Z,25.1800,-80.4900,1.5,38.29,1111122 
ENP,ioos.station.NOAA.NDBC:DKKF1:1,2015-11-08T06:00:00Z,25.1800,-80.4900,1.5,38.3,1111122 
ENP,ioos.station.NOAA.NDBC:DKKF1:1,2015-11-08T09:00:00Z,25.1800,-80.4900,1.5,38.2,1111122 
ENP,ioos.station.NOAA.NDBC:DKKF1:1,2015-11-08T10:00:00Z,25.1800,-80.4900,1.5,38.2,11111222 
ENP,ioos.station.NOAA.NDBC:DKKF1:1,2015-11-08T11:00:00Z,25.1800,-80.4900,1.5,38.11,1111122 
ENP,ioos.station.NOAA.NDBC:DKKF1:1,2015-11-08T12:00:00Z,25.1800,-80.4900,1.5,38.08,1111122 
ENP,ioos.station.NOAA.NDBC:DKKF1:1,2015-11-08T13:00:00Z,25.1800,-80.4900,1.5,38.0,11111222 
ENP,ioos.station.NOAA.NDBC:DKKF1:1,2015-11-08T14:00:00Z,25.1800,-80.4900,1.5,38.05,1111122 
ENP,ioos.station.NOAA.NDBC:DKKF1:1,2015-11-08T15:00:00Z,25.1800,-80.4900,1.5,38.05,1111122 
ENP,ioos.station.NOAA.NDBC:DKKF1:1,2015-11-08T16:00:00Z,25.1800,-80.4900,1.5,38.1,11111222 
ENP,ioos.station.NOAA.NDBC:DKKF1:1,2015-11-08T17:00:00Z,25.1800,-80.4900,1.5,38.07,1111122 
ENP,ioos.station.NOAA.NDBC:DKKF1:1,2015-11-08T18:00:00Z,25.1800,-80.4900,1.5,38.1,11111222 
ENP,ioos.station.NOAA.NDBC:DKKF1:1,2015-11-08T19:00:00Z,25.1800,-80.4900,1.5,38.15,1111122 
ENP,ioos.station.NOAA.NDBC:DKKF1:1,2015-11-08T20:00:00Z,25.1800,-80.4900,1.5,38.2,1111122 
ENP,ioos.station.NOAA.NDBC:DKKF1:1,2015-11-08T21:00:00Z,25.1800,-80.4900,1.5,38.2,11111222 
ENP,ioos.station.NOAA.NDBC:DKKF1:1,2015-11-08T22:00:00Z,25.1800,-80.4900,1.5,38.24,1111122 
ENP,ioos.station.NOAA.NDBC:DKKF1:1,2015-11-08T23:00:00Z,25.1800,-80.4900,1.5,38.2,11111222 
ENP,ioos.station.NOAA.NDBC:DKKF1:1,2015-11-09T00:00:00Z,25.1800,-80.4900,1.5,38.24,1111122 
ENP,ioos.station.NOAA.NDBC:DKKF1:1,2015-11-09T01:00:00Z,25.1800,-80.4900,1.5,38.24,1111122 
ENP,ioos.station.NOAA.NDBC:DKKF1:1,2015-11-09T02:00:00Z,25.1800,-80.4900,1.5,38.26,1111122 
ENP,ioos.station.NOAA.NDBC:DKKF1:1,2015-11-09T04:00:00Z,25.1800,-80.4900,1.5,38.29,1111122 
ENP,ioos.station.NOAA.NDBC:DKKF1:1,2015-11-09T06:00:00Z,25.1800,-80.4900,1.5,38.32,1111122 
ENP,ioos.station.NOAA.NDBC:DKKF1:1,2015-11-09T07:00:00Z,25.1800,-80.4900,1.5,38.32,1111122 
ENP,ioos.station.NOAA.NDBC:DKKF1:1,2015-11-09T09:00:00Z,25.1800,-80.4900,1.5,38.28,1111122 
ENP,ioos.station.NOAA.NDBC:DKKF1:1,2015-11-09T10:00:00Z,25.1800,-80.4900,1.5,38.27,1111122 
ENP,ioos.station.NOAA.NDBC:DKKF1:1,2015-11-09T11:00:00Z,25.1800,-80.4900,1.5,38.27,1111122 
ENP,ioos.station.NOAA.NDBC:DKKF1:1,2015-11-09T12:00:00Z,25.1800,-80.4900,1.5,38.28,1111122 
ENP,ioos.station.NOAA.NDBC:DKKF1:1,2015-11-09T14:00:00Z,25.1800,-80.4900,1.5,38.29,1111122 
ENP,ioos.station.NOAA.NDBC:DKKF1:1,2015-11-09T15:00:00Z,25.1800,-80.4900,1.5,38.3,1111122 
ENP,ioos.station.NOAA.NDBC:DKKF1:1,2015-11-09T17:00:00Z,25.1800,-80.4900,1.5,38.3,1111122 
ENP,ioos.station.NOAA.NDBC:DKKF1:1,2015-11-09T19:00:00Z,25.1800,-80.4900,1.5,38.27,1111122 
ENP,ioos.station.NOAA.NDBC:DKKF1:1,2015-11-09T21:00:00Z,25.1800,-80.4900,1.5,38.27,1111122 
ENP,ioos.station.NOAA.NDBC:DKKF1:1,2015-11-09T22:00:00Z,25.1800,-80.4900,1.5,38.28,1111122 
ENP,ioos.station.NOAA.NDBC:DKKF1:1,2015-11-10T00:00:00Z,25.1800,-80.4900,1.5,38.31,1111122 
ENP,ioos.station.NOAA.NDBC:DKKF1:1,2015-11-10T01:00:00Z,25.1800,-80.4900,1.5,38.32,1111122 
ENP,ioos.station.NOAA.NDBC:DKKF1:1,2015-11-10T02:00:00Z,25.1800,-80.4900,1.5,38.32,1111122 
ENP,ioos.station.NOAA.NDBC:DKKF1:1,2015-11-10T04:00:00Z,25.1800,-80.4900,1.5,38.31,1111122 
ENP,ioos.station.NOAA.NDBC:DKKF1:1,2015-11-10T05:00:00Z,25.1800,-80.4900,1.5,38.3,1111122 
ENP,ioos.station.NOAA.NDBC:DKKF1:1,2015-11-10T06:00:00Z,25.1800,-80.4900,1.5,38.33,1111122 
ENP,ioos.station.NOAA.NDBC:DKKF1:1,2015-11-10T07:00:00Z,25.1800,-80.4900,1.5,38.42,1111122 
ENP,ioos.station.NOAA.NDBC:DKKF1:1,2015-11-10T09:00:00Z,25.1800,-80.4900,1.5,38.32,1111122 
ENP,ioos.station.NOAA.NDBC:DKKF1:1,2015-11-10T10:00:00Z,25.1800,-80.4900,1.5,38.14,1111122 
ENP,ioos.station.NOAA.NDBC:DKKF1:1,2015-11-10T11:00:00Z,25.1800,-80.4900,1.5,38.01,1111122 
ENP,ioos.station.NOAA.NDBC:DKKF1:1,2015-11-10T12:00:00Z,25.1800,-80.4900,1.5,38.0,1111122 
ENP,ioos.station.NOAA.NDBC:DKKF1:1,2015-11-10T13:00:00Z,25.1800,-80.4900,1.5,38.01,1111122 
ENP,ioos.station.NOAA.NDBC:DKKF1:1,2015-11-10T14:00:00Z,25.1800,-80.4900,1.5,38.06,1111122 
ENP,ioos.station.NOAA.NDBC:DKKF1:1,2015-11-10T15:00:00Z,25.1800,-80.4900,1.5,38.1,11111222 
ENP,ioos.station.NOAA.NDBC:DKKF1:1,2015-11-10T16:00:00Z,25.1800,-80.4900,1.5,38.22,1111122 
ENP,ioos.station.NOAA.NDBC:DKKF1:1,2015-11-10T17:00:00Z,25.1800,-80.4900,1.5,38.3,1111122 
ENP,ioos.station.NOAA.NDBC:DKKF1:1,2015-11-10T18:00:00Z,25.1800,-80.4900,1.5,38.35,1111122 
ENP,ioos.station.NOAA.NDBC:DKKF1:1,2015-11-10T19:00:00Z,25.1800,-80.4900,1.5,38.4,11111222 
ENP,ioos.station.NOAA.NDBC:DKKF1:1,2015-11-10T20:00:00Z,25.1800,-80.4900,1.5,38.5,1111122 
ENP,ioos.station.NOAA.NDBC:DKKF1:1,2015-11-10T22:00:00Z,25.1800,-80.4900,1.5,38.45,1111122 
ENP,ioos.station.NOAA.NDBC:DKKF1:1,2015-11-10T23:00:00Z,25.1800,-80.4900,1.5,38.15,1111122 
ENP,ioos.station.NOAA.NDBC:DKKF1:1,2015-11-11T00:00:00Z,25.1800,-80.4900,1.5,38.01,1111122 
ENP,ioos.station.NOAA.NDBC:DKKF1:1,2015-11-11T02:00:00Z,25.1800,-80.4900,1.5,37.57,1111122 
ENP,ioos.station.NOAA.NDBC:DKKF1:1,2015-11-11T09:00:00Z,25.1800,-80.4900,1.5,37.09,1111122 
ENP,ioos.station.NOAA.NDBC:DKKF1:1,2015-11-11T13:00:00Z,25.1800,-80.4900,1.5,37.15,1111122 
ENP,ioos.station.NOAA.NDBC:DKKF1:1,2015-11-11T14:00:00Z,25.1800,-80.4900,1.5,37.44,1111122 
ENP,ioos.station.NOAA.NDBC:DKKF1:1,2015-11-11T15:00:00Z,25.1800,-80.4900,1.5,37.6,11111222 
ENP,ioos.station.NOAA.NDBC:DKKF1:1,2015-11-11T16:00:00Z,25.1800,-80.4900,1.5,37.78,1111122 
ENP,ioos.station.NOAA.NDBC:DKKF1:1,2015-11-11T17:00:00Z,25.1800,-80.4900,1.5,37.88,1111122 
ENP,ioos.station.NOAA.NDBC:DKKF1:1,2015-11-11T18:00:00Z,25.1800,-80.4900,1.5,37.94,1111122 
ENP,ioos.station.NOAA.NDBC:DKKF1:1,2015-11-11T19:00:00Z,25.1800,-80.4900,1.5,38.0,1111122 
ENP,ioos.station.NOAA.NDBC:DKKF1:1,2015-11-11T20:00:00Z,25.1800,-80.4900,1.5,38.05,1111122 
ENP,ioos.station.NOAA.NDBC:DKKF1:1,2015-11-11T22:00:00Z,25.1800,-80.4900,1.5,38.1,11111222 
ENP,ioos.station.NOAA.NDBC:DKKF1:1,2015-11-11T23:00:00Z,25.1800,-80.4900,1.5,38.11,1111122 
ENP,ioos.station.NOAA.NDBC:DKKF1:1,2015-11-12T00:00:00Z,25.1800,-80.4900,1.5,38.12,1111122 
ENP,ioos.station.NOAA.NDBC:DKKF1:1,2015-11-12T01:00:00Z,25.1800,-80.4900,1.5,38.1,11111222 
ENP,ioos.station.NOAA.NDBC:DKKF1:1,2015-11-12T02:00:00Z,25.1800,-80.4900,1.5,37.92,1111122 
ENP,ioos.station.NOAA.NDBC:DKKF1:1,2015-11-12T03:00:00Z,25.1800,-80.4900,1.5,37.75,1111122 
ENP,ioos.station.NOAA.NDBC:DKKF1:1,2015-11-12T05:00:00Z,25.1800,-80.4900,1.5,37.69,1111122 
ENP,ioos.station.NOAA.NDBC:DKKF1:1,2015-11-12T06:00:00Z,25.1800,-80.4900,1.5,37.72,1111122 
ENP,ioos.station.NOAA.NDBC:DKKF1:1,2015-11-12T07:00:00Z,25.1800,-80.4900,1.5,37.74,1111122 
ENP,ioos.station.NOAA.NDBC:DKKF1:1,2015-11-12T08:00:00Z,25.1800,-80.4900,1.5,37.7,11111222 
ENP,ioos.station.NOAA.NDBC:DKKF1:1,2015-11-12T09:00:00Z,25.1800,-80.4900,1.5,37.76,1111122 
ENP,ioos.station.NOAA.NDBC:DKKF1:1,2015-11-12T10:00:00Z,25.1800,-80.4900,1.5,37.8,11111222 
ENP,ioos.station.NOAA.NDBC:DKKF1:1,2015-11-12T11:00:00Z,25.1800,-80.4900,1.5,37.77,1111122 
ENP,ioos.station.NOAA.NDBC:DKKF1:1,2015-11-12T12:00:00Z,25.1800,-80.4900,1.5,37.78,1111122 
ENP,ioos.station.NOAA.NDBC:DKKF1:1,2015-11-12T13:00:00Z,25.1800,-80.4900,1.5,37.78,1111122 
ENP,ioos.station.NOAA.NDBC:DKKF1:1,2015-11-12T14:00:00Z,25.1800,-80.4900,1.5,37.74,1111122 
ENP,ioos.station.NOAA.NDBC:DKKF1:1,2015-11-12T15:00:00Z,25.1800,-80.4900,1.5,37.71,1111122 
ENP,ioos.station.NOAA.NDBC:DKKF1:1,2015-11-12T16:00:00Z,25.1800,-80.4900,1.5,37.71,1111122 
ENP,ioos.station.NOAA.NDBC:DKKF1:1,2015-11-12T17:00:00Z,25.1800,-80.4900,1.5,37.7,11111222 
ENP,ioos.station.NOAA.NDBC:DKKF1:1,2015-11-12T18:00:00Z,25.1800,-80.4900,1.5,37.75,1111122 
ENP,ioos.station.NOAA.NDBC:DKKF1:1,2015-11-12T19:00:00Z,25.1800,-80.4900,1.5,37.81,1111122 
ENP,ioos.station.NOAA.NDBC:DKKF1:1,2015-11-12T20:00:00Z,25.1800,-80.4900,1.5,37.83,1111122 
ENP,ioos.station.NOAA.NDBC:DKKF1:1,2015-11-12T22:00:00Z,25.1800,-80.4900,1.5,37.83,1111122 
ENP,ioos.station.NOAA.NDBC:DKKF1:1,2015-11-12T23:00:00Z,25.1800,-80.4900,1.5,37.83,1111122 
ENP,ioos.station.NOAA.NDBC:DKKF1:1,2015-11-13T00:00:00Z,25.1800,-80.4900,1.5,37.8,11111222 
ENP,ioos.station.NOAA.NDBC:DKKF1:1,2015-11-13T01:00:00Z,25.1800,-80.4900,1.5,37.83,1111122 
ENP,ioos.station.NOAA.NDBC:DKKF1:1,2015-11-13T02:00:00Z,25.1800,-80.4900,1.5,37.83,1111122 
ENP,ioos.station.NOAA.NDBC:DKKF1:1,2015-11-13T03:00:00Z,25.1800,-80.4900,1.5,37.83,1111122 
ENP,ioos.station.NOAA.NDBC:DKKF1:1,2015-11-13T05:00:00Z,25.1800,-80.4900,1.5,37.83,1111122 
ENP,ioos.station.NOAA.NDBC:DKKF1:1,2015-11-13T06:00:00Z,25.1800,-80.4900,1.5,37.83,1111122 
ENP,ioos.station.NOAA.NDBC:DKKF1:1,2015-11-13T07:00:00Z,25.1800,-80.4900,1.5,37.83,1111122 
ENP,ioos.station.NOAA.NDBC:DKKF1:1,2015-11-13T08:00:00Z,25.1800,-80.4900,1.5,37.8,11111222 
ENP,ioos.station.NOAA.NDBC:DKKF1:1,2015-11-13T09:00:00Z,25.1800,-80.4900,1.5,37.83,1111122 
ENP,ioos.station.NOAA.NDBC:DKKF1:1,2015-11-13T10:00:00Z,25.1800,-80.4900,1.5,37.8,11111222 
ENP,ioos.station.NOAA.NDBC:DKKF1:1,2015-11-13T11:00:00Z,25.1800,-80.4900,1.5,37.85,1111122 
ENP,ioos.station.NOAA.NDBC:DKKF1:1,2015-11-13T12:00:00Z,25.1800,-80.4900,1.5,37.9,11111222 
ENP,ioos.station.NOAA.NDBC:DKKF1:1,2015-11-13T13:00:00Z,25.1800,-80.4900,1.5,37.88,1111122 
ENP,ioos.station.NOAA.NDBC:DKKF1:1,2015-11-13T14:00:00Z,25.1800,-80.4900,1.5,37.9,1111122 
ENP,ioos.station.NOAA.NDBC:DKKF1:1,2015-11-13T15:00:00Z,25.1800,-80.4900,1.5,37.8,11111222 
ENP,ioos.station.NOAA.NDBC:DKKF1:1,2015-11-13T16:00:00Z,25.1800,-80.4900,1.5,37.8,1111122 
ENP,ioos.station.NOAA.NDBC:DKKF1:1,2015-11-13T17:00:00Z,25.1800,-80.4900,1.5,37.81,1111122 
ENP,ioos.station.NOAA.NDBC:DKKF1:1,2015-11-13T18:00:00Z,25.1800,-80.4900,1.5,37.83,1111122 
ENP,ioos.station.NOAA.NDBC:DKKF1:1,2015-11-13T19:00:00Z,25.1800,-80.4900,1.5,37.88,1111122 
ENP,ioos.station.NOAA.NDBC:DKKF1:1,2015-11-13T21:00:00Z,25.1800,-80.4900,1.5,37.89,1111122 
ENP,ioos.station.NOAA.NDBC:DKKF1:1,2015-11-13T22:00:00Z,25.1800,-80.4900,1.5,37.86,1111122 
ENP,ioos.station.NOAA.NDBC:DKKF1:1,2015-11-13T23:00:00Z,25.1800,-80.4900,1.5,37.86,1111122 
ENP,ioos.station.NOAA.NDBC:DKKF1:1,2015-11-14T00:00:00Z,25.1800,-80.4900,1.5,37.86,1111122 
ENP,ioos.station.NOAA.NDBC:DKKF1:1,2015-11-14T01:00:00Z,25.1800,-80.4900,1.5,37.9,11111222 
ENP,ioos.station.NOAA.NDBC:DKKF1:1,2015-11-14T02:00:00Z,25.1800,-80.4900,1.5,37.86,1111122 
ENP,ioos.station.NOAA.NDBC:DKKF1:1,2015-11-14T04:00:00Z,25.1800,-80.4900,1.5,37.86,1111122 
ENP,ioos.station.NOAA.NDBC:DKKF1:1,2015-11-14T05:00:00Z,25.1800,-80.4900,1.5,37.86,1111122 
ENP,ioos.station.NOAA.NDBC:DKKF1:1,2015-11-14T06:00:00Z,25.1800,-80.4900,1.5,37.9,11111222 
ENP,ioos.station.NOAA.NDBC:DKKF1:1,2015-11-14T07:00:00Z,25.1800,-80.4900,1.5,37.9,1111122 
ENP,ioos.station.NOAA.NDBC:DKKF1:1,2015-11-14T09:00:00Z,25.1800,-80.4900,1.5,37.92,1111122 
ENP,ioos.station.NOAA.NDBC:DKKF1:1,2015-11-14T10:00:00Z,25.1800,-80.4900,1.5,37.94,1111122 
ENP,ioos.station.NOAA.NDBC:DKKF1:1,2015-11-14T11:00:00Z,25.1800,-80.4900,1.5,37.95,1111122 
ENP,ioos.station.NOAA.NDBC:DKKF1:1,2015-11-14T12:00:00Z,25.1800,-80.4900,1.5,37.83,1111122 
ENP,ioos.station.NOAA.NDBC:DKKF1:1,2015-11-14T13:00:00Z,25.1800,-80.4900,1.5,37.8,11111222 
ENP,ioos.station.NOAA.NDBC:DKKF1:1,2015-11-14T14:00:00Z,25.1800,-80.4900,1.5,37.81,1111122 
ENP,ioos.station.NOAA.NDBC:DKKF1:1,2015-11-14T15:00:00Z,25.1800,-80.4900,1.5,37.8,11111222 
ENP,ioos.station.NOAA.NDBC:DKKF1:1,2015-11-14T16:00:00Z,25.1800,-80.4900,1.5,37.75,1111122 
ENP,ioos.station.NOAA.NDBC:DKKF1:1,2015-11-14T17:00:00Z,25.1800,-80.4900,1.5,37.77,1111122 
ENP,ioos.station.NOAA.NDBC:DKKF1:1,2015-11-14T18:00:00Z,25.1800,-80.4900,1.5,37.79,1111122 
ENP,ioos.station.NOAA.NDBC:DKKF1:1,2015-11-14T19:00:00Z,25.1800,-80.4900,1.5,37.8,1111122 
ENP,ioos.station.NOAA.NDBC:DKKF1:1,2015-11-14T20:00:00Z,25.1800,-80.4900,1.5,37.83,1111122 
ENP,ioos.station.NOAA.NDBC:DKKF1:1,2015-11-14T21:00:00Z,25.1800,-80.4900,1.5,37.9,11111222 
ENP,ioos.station.NOAA.NDBC:DKKF1:1,2015-11-14T22:00:00Z,25.1800,-80.4900,1.5,37.86,1111122 
ENP,ioos.station.NOAA.NDBC:DKKF1:1,2015-11-14T23:00:00Z,25.1800,-80.4900,1.5,37.9,11111222 
ENP,ioos.station.NOAA.NDBC:DKKF1:1,2015-11-15T00:00:00Z,25.1800,-80.4900,1.5,37.87,1111122 
ENP,ioos.station.NOAA.NDBC:DKKF1:1,2015-11-15T01:00:00Z,25.1800,-80.4900,1.5,37.87,1111122 
ENP,ioos.station.NOAA.NDBC:DKKF1:1,2015-11-15T02:00:00Z,25.1800,-80.4900,1.5,37.74,1111122 